Location: Newark
(34.3481°N, 134.0494°E)
Time: 15:38:15
(UTC+00:00)

Vanguard 2 Rocket - All Passes

Search period start: 27 January 2020 00:00
Search period end: 06 February 2020 00:00
Orbit: 554 x 3326 km, 32.9° (Epoch: 26 January)

Date Brightness Start Highest point End Pass type
(mag) Time Alt. Az. Time Alt. Az. Time Alt. Az.
27 Jan - 01:40:17 10° W 01:48:00 31° SSW 02:00:01 10° SSE daylight
27 Jan - 04:01:17 10° SW 04:04:02 11° SSW 04:07:00 10° SSW daylight
27 Jan - 18:04:44 10° SSW 18:08:03 25° SSE 18:11:28 10° E visible
27 Jan - 20:16:18 10° WSW 20:20:23 72° S 20:26:16 10° E visible
27 Jan - 22:28:16 10° W 22:33:31 67° S 22:42:36 10° ESE daylight
28 Jan - 00:40:46 10° W 00:47:36 37° SSW 00:58:55 10° SE daylight
28 Jan - 02:57:04 10° WSW 03:03:03 15° SSW 03:10:34 10° S daylight
28 Jan - 17:06:20 10° SSW 17:08:55 16° SSE 17:11:20 10° ESE night (unlit)
28 Jan - 19:17:22 10° WSW 19:21:13 58° SSE 19:25:56 10° E visible
28 Jan - 21:29:27 10° W 21:34:00 74° S 21:41:19 10° ESE visible
28 Jan - 23:41:35 10° W 23:47:32 44° SSW 23:57:38 10° SE daylight
29 Jan - 01:55:56 10° WSW 02:02:21 20° SSW 02:11:16 10° SSE daylight
29 Jan - 18:18:20 10° SW 18:22:08 40° SSE 18:26:03 10° E visible
29 Jan - 20:30:34 10° W 20:34:39 77° S 20:40:31 10° E visible
29 Jan - 22:42:38 10° W 22:47:46 51° SSW 22:56:25 10° ESE daylight
30 Jan - 00:55:51 10° WSW 01:01:57 25° SSW 01:11:04 10° SSE daylight
30 Jan - 17:19:15 10° SW 17:23:02 28° SSE 17:26:26 10° E night (unlit)
30 Jan - 19:31:32 10° WSW 19:35:26 72° S 19:40:13 10° E visible
30 Jan - 21:43:45 10° W 21:48:15 60° S 21:55:24 10° ESE daylight
30 Jan - 23:56:20 10° W 00:01:51 30° SSW 00:10:30 10° SE daylight
31 Jan - 02:14:35 10° SW 02:16:49 11° SSW 02:19:17 10° SSW daylight
31 Jan - 16:20:08 10° SSW 16:23:48 20° SSE 16:26:51 10° ESE night (unlit)
31 Jan - 18:32:20 10° WSW 18:36:19 59° S 18:40:24 10° E visible
31 Jan - 20:44:51 10° W 20:48:55 69° S 20:54:44 10° ESE visible
31 Jan - 22:57:09 10° W 23:02:03 35° SSW 23:09:48 10° SE daylight
01 Feb - 01:12:10 10° SW 01:16:23 14° SSW 01:21:43 10° S daylight
01 Feb - 15:21:12 10° S 15:24:23 15° SSE 15:27:02 10° ESE night (unlit)
01 Feb - 17:32:54 10° WSW 17:37:12 44° SSE 17:40:57 10° E night (unlit)
01 Feb - 19:45:49 10° W 19:49:43 74° S 19:54:29 10° E visible
01 Feb - 21:58:09 10° W 22:02:31 43° SSW 22:09:12 10° SE daylight
02 Feb - 00:11:46 10° WSW 00:16:15 18° SSW 00:22:22 10° SSE daylight
02 Feb - 14:22:59 10° S 14:24:46 11° SSE 14:26:21 10° SE night (unlit)
02 Feb - 16:33:15 10° SW 16:38:01 33° SSE 16:41:42 10° E night (unlit)
02 Feb - 18:46:32 10° W 18:50:33 72° S 18:54:42 10° E visible
02 Feb - 20:59:10 10° W 21:03:11 52° SSW 21:08:47 10° ESE visible
02 Feb - 23:12:06 10° WSW 23:16:23 22° SSW 23:22:30 10° SSE daylight
03 Feb - 15:33:28 10° SW 15:38:41 26° SSE 15:42:29 10° ESE night (unlit)
03 Feb - 17:46:56 10° WSW 17:51:26 63° S 17:55:18 10° E night (unlit)
03 Feb - 20:00:06 10° W 20:03:59 64° S 20:08:41 10° ESE visible
03 Feb - 22:12:47 10° WSW 22:16:48 28° SSW 22:22:29 10° SE daylight
04 Feb - 14:33:38 10° SSW 14:39:08 21° SSE 14:43:07 10° ESE night (unlit)
04 Feb - 16:46:59 10° WSW 16:52:15 51° SSE 16:56:10 10° E night (unlit)
04 Feb - 19:00:48 10° W 19:04:50 72° S 19:08:58 10° E visible
04 Feb - 21:13:38 10° W 21:17:25 35° SSW 21:22:31 10° SE visible
04 Feb - 23:28:22 10° SW 23:30:46 12° SSW 23:33:37 10° S daylight
05 Feb - 13:33:59 10° SSW 13:39:20 17° SSE 13:43:22 10° ESE night (unlit)
05 Feb - 15:46:44 10° SW 15:52:57 41° SSE 15:57:09 10° E night (unlit)
05 Feb - 18:01:08 10° W 18:05:42 74° S 18:09:36 10° E night (unlit)
05 Feb - 20:14:27 10° W 20:18:13 46° SSW 20:22:43 10° ESE visible
05 Feb - 22:28:06 10° WSW 22:31:06 16° SSW 22:34:52 10° SSE daylight
